Temperature
22 23 22 21 21 20 20 20 20 20 20 20 20 20 20 20 20 19 19 19 19 19 19 19 20 20 20 20 20 20 20 20 20 20 20 20 20 20 19 19 18 18 19
23 23 22 22 21 20 20 20 20 20 20 19 19 19 19 19 19 19 19 19 19 19 19 19 20 20 20 20 21 21 21 21 20 20 20 20 20 20 20 19 18 19 19
23 24 22 22 21 20 20 20 20 20 19 19 19 19 19 19 19 19 19 19 19 19 19 19 19 20 20 20 20 21 21 21 20 20 20 19 19 20 20 20 19 19 19
24 24 23 22 21 21 20 20 20 20 20 19 19 19 19 19 19 19 19 19 19 19 19 19 19 19 19 20 20 20 20 20 20 20 19 18 18 19 19 20 19 19 19
23 23 23 22 22 21 20 20 20 20 20 20 20 19 19 19 19 19 19 19 19 19 19 19 19 19 19 19 19 20 20 20 20 20 20 19 18 19 19 19 19 19 19
22 23 23 22 22 21 21 20 20 20 20 20 20 20 19 19 19 19 19 19 19 19 19 19 19 19 19 19 19 19 19 20 20 20 19 19 19 19 19 19 19 19 19
22 22 23 23 22 22 21 21 20 20 20 20 20 20 19 19 19 19 19 19 19 19 19 19 19 19 19 19 19 19 19 19 19 19 18 19 19 19 19 18 18 18 18
23 22 23 23 22 22 21 21 20 20 20 20 20 20 20 19 19 19 19 19 19 19 19 19 19 19 19 19 19 19 19 19 19 18 18 18 19 18 18 18 18 18 18
23 22 23 23 22 22 21 21 20 20 20 20 20 20 20 20 20 20 19 19 19 19 19 19 19 19 19 19 19 19 19 19 19 19 19 19 19 19 18 18 18 18 18
23 22 22 23 22 22 21 21 21 20 20 20 20 20 20 20 20 20 20 19 19 19 19 19 19 19 19 19 19 19 19 19 19 19 19 19 19 19 18 18 18 18 18
23 22 21 21 22 22 22 21 21 21 21 20 20 20 20 20 19 19 19 19 19 19 19 19 19 19 19 19 19 19 18 19 19 19 19 19 19 19 19 19 18 19 18
23 22 21 21 21 21 21 20 21 21 21 21 20 20 20 19 19 18 19 19 19 19 19 19 19 19 19 19 19 18 18 19 19 19 19 19 19 19 19 19 19 19 18
23 22 21 21 20 20 20 20 20 20 20 20 20 19 19 19 19 19 19 19 19 19 19 19 19 19 19 19 18 18 19 19 19 19 19 19 19 19 19 19 19 19 19
23 22 21 21 20 20 21 21 20 20 20 20 20 19 19 19 19 19 19 19 19 19 19 19 19 19 19 18 18 19 19 19 19 19 19 19 19 19 19 19 19 19 19
23 22 22 21 20 20 21 21 21 21 21 20 20 20 20 19 19 20 20 20 19 19 19 19 19 19 19 19 19 19 19 19 19 19 19 19 19 19 19 19 19 19 19
23 22 22 21 20 20 21 21 21 21 21 21 21 20 20 20 19 19 20 19 19 19 19 19 19 19 19 19 19 19 19 19 19 19 19 19 19 19 19 19 19 19 19
24 23 22 21 20 20 20 20 20 20 20 21 21 21 20 20 19 19 19 19 19 19 19 19 19 19 19 19 19 19 19 19 19 19 19 19 19 19 19 19 19 19 19
25 24 22 22 21 20 20 20 20 20 20 21 21 21 20 20 20 19 19 19 19 19 19 19 19 19 19 19 19 19 19 19 19 19 19 19 19 19 19 19 19 19 19
24 24 23 22 21 20 20 20 21 20 20 21 21 21 21 20 19 19 19 19 19 19 19 19 19 19 19 19 19 19 19 19 19 20 20 20 20 20 19 19 19 19 19
24 23 22 22 21 21 20 20 20 20 20 20 20 20 20 20 20 19 19 19 19 19 19 19 19 19 19 19 19 18 19 19 20 20 20 20 20 20 20 20 19 19 19
23 23 22 21 21 20 20 20 20 20 20 20 20 20 20 20 20 19 19 19 19 19 19 19 19 19 19 18 18 18 19 19 20 20 21 20 20 20 20 20 19 19 19
22 22 21 20 20 20 20 20 19 19 19 19 19 19 20 20 19 19 19 19 19 19 19 18 18 18 18 18 18 17 17 19 20 21 21 20 20 20 19 19 19 19 19
21 21 20 20 19 19 19 19 19 19 19 19 19 19 19 19 19 19 19 18 18 18 18 18 18 18 17 17 17 17 17 18 19 20 20 20 20 19 19 19 19 19 19
20 20 19 19 19 19 19 19 19 18 18 19 19 19 18 18 18 18 18 18 18 18 18 17 17 17 17 17 17 17 17 17 17 17 18 19 19 18 18 18 18 18 18
20 20 19 19 18 18 18 18 18 18 18 18 18 18 18 18 18 18 18 18 18 17 17 17 16 16 16 16 16 16 16 16 16 16 16 17 18 18 18 17 17 17 17
21 20 19 19 18 17 17 17 17 17 18 18 18 17 17 17 17 17 17 17 17 17 16 16 16 16 15 15 15 15 16 16 16 16 16 16 17 17 17 17 17 17 17
Wind_Speed
19 20 22 18 15 15 15 15 14 14 13 12 11 11 10 10 9 9 9 9 9 9 9 9 10 9 9 10 11 11 11 11 11 10 10 10 9 8 7 7 4 12 11
23 22 22 19 17 15 15 15 15 14 13 12 11 10 10 9 8 7 7 7 7 8 8 7 7 8 8 8 8 8 8 7 7 7 8 9 9 8 6 5 9 12 11
22 22 21 19 17 15 14 14 14 14 13 12 11 10 9 8 7 6 5 5 5 5 6 6 5 5 5 6 6 5 5 4 4 5 7 9 11 10 7 6 9 10 8
22 21 20 20 18 16 15 14 14 14 13 12 11 10 9 8 8 7 6 5 4 4 4 4 4 4 4 4 4 4 3 3 5 6 9 11 12 12 11 7 6 6 6
20 20 21 21 18 17 15 14 13 13 12 12 11 10 9 9 8 8 7 6 5 4 4 3 3 3 3 4 4 4 5 5 7 11 13 12 13 17 14 11 8 6 6
20 20 22 20 19 17 15 14 13 12 12 11 10 10 9 9 8 8 8 7 6 5 4 4 4 4 4 5 6 6 7 8 9 13 15 12 12 18 16 13 11 10 9
20 20 22 20 19 17 16 14 13 12 12 11 10 9 8 8 7 8 8 7 6 5 5 5 6 6 6 6 7 8 9 10 11 14 15 11 11 20 17 14 12 12 13
20 20 21 20 19 17 16 14 13 12 12 11 10 9 8 8 8 8 8 8 7 7 7 7 7 8 8 9 9 10 11 12 13 14 16 13 14 21 18 15 13 13 14
20 20 18 18 17 16 15 14 13 12 11 11 11 10 10 9 9 9 10 10 9 9 9 9 9 10 10 11 12 12 13 14 14 14 17 13 16 22 19 16 14 13 14
19 20 17 17 16 15 15 15 14 13 13 12 12 11 11 11 12 13 13 14 13 12 12 12 12 13 13 14 15 15 16 15 16 17 17 14 18 21 18 16 14 13 14
15 17 17 16 15 15 16 17 16 14 14 13 13 13 13 12 15 16 18 18 18 17 16 15 15 16 16 17 19 20 18 14 16 16 16 13 19 19 17 16 15 15 15
13 14 13 16 15 14 14 16 15 14 15 15 14 15 14 14 13 14 19 22 21 20 18 17 18 17 16 15 18 24 15 17 17 15 12 18 21 20 18 17 16 16 17
11 12 11 12 11 12 9 11 10 12 13 16 16 15 14 12 11 12 9 15 18 18 15 16 17 15 14 14 12 10 14 15 12 13 9 20 21 20 18 18 17 18 19
12 13 13 11 9 7 7 7 8 7 7 10 15 16 12 6 6 6 4 9 12 12 12 10 8 12 13 14 12 9 11 10 10 8 8 19 21 20 19 19 19 20 20
12 12 11 11 10 8 6 4 7 7 7 9 10 15 12 7 8 7 4 3 4 6 5 5 4 6 6 7 8 8 7 8 10 11 10 19 22 22 22 21 21 22 22
15 14 12 12 11 8 7 6 5 5 4 5 6 12 15 9 6 6 5 4 4 6 5 3 5 5 5 5 7 7 6 8 9 12 12 16 24 24 24 24 24 24 24
14 13 11 12 11 11 10 9 8 7 7 6 5 9 12 11 6 5 5 5 5 6 4 3 4 3 5 5 6 8 8 7 8 9 11 11 15 23 26 26 26 25 25
9 10 11 13 13 12 10 8 8 9 8 6 6 7 10 11 9 5 6 5 3 3 2 2 4 4 4 4 5 7 9 8 11 9 10 11 13 15 21 28 27 26 26
6 6 8 8 9 12 12 9 10 8 7 6 4 4 7 11 11 6 6 4 3 3 3 5 3 2 3 4 6 8 10 10 11 12 10 9 11 12 12 20 28 28 28
5 5 6 8 7 7 8 8 8 10 8 6 6 4 5 6 8 6 6 6 5 4 4 4 4 3 3 4 7 10 9 9 9 10 11 9 7 10 13 14 18 23 28
2 2 4 5 5 4 5 7 8 8 7 6 6 7 6 6 6 6 6 5 6 6 6 5 4 5 4 3 4 8 10 11 13 12 11 9 8 7 7 8 9 13 16
8 6 3 2 4 6 6 6 7 7 7 7 7 6 6 6 5 7 7 6 6 5 6 6 6 4 4 4 3 4 7 8 9 8 4 6 6 5 5 5 5 7 10
7 7 7 6 5 5 6 6 7 6 6 8 8 6 5 5 5 5 6 7 6 7 7 7 6 7 5 4 5 4 4 5 5 6 5 3 3 3 3 4 5 4 6
4 4 4 4 5 5 6 5 7 7 9 10 8 8 6 6 7 6 7 7 7 7 7 7 7 6 5 5 4 5 8 6 4 5 5 5 5 4 4 5 6 5 5
4 4 3 2 4 5 6 6 7 7 7 7 7 8 8 8 8 9 8 7 7 7 7 7 5 6 5 4 4 4 6 6 7 5 6 5 5 4 4 4 4 4 4
4 5 4 3 4 4 6 6 7 8 9 9 9 8 7 7 7 9 9 7 7 7 7 6 6 5 4 4 5 5 5 4 3 4 5 5 5 4 3 1 2 2 3
Wind_Direction
130 135 135 134 135 141 145 144 140 136 133 130 127 123 119 115 111 105 98 94 92 89 86 85 88 89 85 80 79 80 81 84 90 98 104 105 103 100 96 88 109 106 106
128 135 137 136 137 141 146 147 145 141 139 136 134 132 129 125 121 115 108 101 96 92 89 88 91 96 99 98 98 99 100 104 114 126 134 134 129 121 105 63 50 113 115
127 135 138 138 138 139 142 145 146 146 144 141 140 139 139 138 136 134 130 122 112 105 103 103 104 107 112 116 119 123 127 139 163 178 185 179 154 146 132 103 95 114 122
129 139 142 140 139 139 140 142 145 147 147 146 146 147 149 152 155 157 157 155 146 135 131 131 131 134 139 146 153 160 175 205 236 243 232 224 170 159 149 138 131 136 146
133 140 139 145 143 143 144 145 147 149 150 152 153 156 160 165 170 172 172 172 170 166 167 171 174 176 185 195 201 207 218 237 257 265 263 252 164 160 160 157 166 176 181
138 139 143 148 147 148 150 152 153 155 156 159 161 165 171 178 181 178 179 179 182 186 192 199 210 217 222 225 226 231 238 249 264 265 260 255 163 166 165 168 180 196 202
143 137 147 152 152 154 158 160 161 162 163 165 167 172 179 184 186 184 185 190 196 205 214 220 224 229 233 239 242 243 246 252 259 273 276 262 162 165 169 175 187 203 212
140 138 148 155 157 160 164 167 169 170 172 173 176 181 187 192 198 201 200 203 209 215 222 230 235 238 237 239 244 248 251 257 260 262 265 255 172 170 176 181 191 206 217
140 138 151 158 162 166 170 174 177 180 183 185 188 192 197 203 208 213 214 215 216 219 224 229 235 240 243 244 244 246 250 253 264 273 275 261 187 177 182 188 197 210 222
138 142 156 160 164 170 176 183 186 189 193 198 201 203 207 213 218 220 219 218 219 220 224 229 235 240 244 247 247 246 247 251 254 258 261 259 186 181 186 193 203 217 228
145 146 159 162 168 177 183 184 188 196 202 206 210 214 216 222 221 218 223 220 216 219 222 227 234 240 244 249 248 246 244 244 251 249 247 226 180 182 189 198 210 222 232
155 155 164 162 173 185 194 173 186 196 199 207 213 207 211 226 237 231 216 213 213 217 221 227 233 239 243 250 249 239 238 239 246 253 239 182 179 186 193 203 213 224 233
165 168 171 163 175 188 197 166 189 200 193 200 219 214 207 221 232 239 205 200 210 216 222 229 229 234 239 240 251 228 224 242 240 247 217 181 186 191 198 207 216 226 233
180 182 178 171 177 209 210 183 187 201 190 195 202 210 206 206 233 236 211 187 197 209 212 227 211 217 231 241 241 235 230 242 256 252 198 188 194 199 205 212 219 227 232
182 192 180 173 177 199 236 242 203 209 205 198 193 197 205 202 214 230 221 209 229 241 206 208 224 217 225 239 249 254 245 242 252 256 227 199 202 207 211 215 221 227 232
186 195 188 179 179 187 209 228 258 240 215 225 199 192 198 212 212 217 209 200 222 245 261 239 250 242 233 245 257 263 257 256 252 247 236 212 212 215 217 219 223 226 230
191 192 184 181 185 188 208 219 230 238 242 223 216 207 194 205 214 208 222 219 219 227 240 257 273 289 280 273 272 276 270 254 253 250 245 236 224 222 223 223 225 226 228
193 182 184 197 191 189 200 216 231 238 240 234 213 208 199 206 218 214 216 224 213 211 205 234 240 252 271 285 286 282 277 273 260 248 243 238 237 237 225 224 225 227 228
192 176 179 208 200 190 200 210 234 251 256 262 243 209 200 201 208 207 221 223 221 221 223 247 240 223 257 275 279 272 262 258 259 258 249 242 237 233 229 218 221 223 225
168 180 188 199 221 202 201 214 227 240 243 238 248 246 224 203 198 197 211 216 222 227 222 226 239 240 243 258 277 281 281 272 266 261 258 256 248 242 240 231 217 223 223
72 162 200 218 234 242 235 231 232 238 245 249 238 230 222 218 205 194 223 217 220 229 230 230 234 239 241 246 265 279 274 267 261 248 238 237 246 255 255 244 219 213 218
24 12 356 342 291 271 258 256 257 259 259 252 250 237 217 209 207 215 218 231 233 236 234 231 229 232 232 231 240 275 281 279 273 267 223 215 233 244 265 273 256 226 214
11 3 5 9 349 322 297 279 274 272 264 263 260 251 236 230 222 230 233 239 238 237 235 227 224 228 231 239 236 235 264 274 329 315 301 267 252 254 274 291 290 279 255
352 350 356 356 352 341 328 307 286 270 264 262 262 258 248 239 238 235 236 233 234 235 236 233 224 221 222 238 254 258 255 270 282 302 316 338 346 334 320 305 303 301 288
310 309 310 344 342 335 326 311 300 290 281 279 273 262 248 237 229 232 231 229 230 232 232 233 230 223 221 237 257 281 279 267 241 250 283 304 319 315 305 291 298 318 340
293 292 301 317 312 311 309 307 301 298 296 292 283 270 256 243 230 227 227 222 225 226 225 227 228 227 224 241 255 263 275 274 270 246 264 293 296 292 298 319 358 359 2
Height
1511 1513 1516 1520 1522 1524 1527 1529 1531 1533 1535 1536 1538 1539 1541 1542 1544 1545 1546 1548 1549 1550 1551 1552 1553 1553 1554 1555 1555 1556 1557 1557 1558 1558 1558 1559 1558 1558 1558 1558 1558 1559 1560
1509 1513 1517 1520 1523 1525 1528 1530 1532 1534 1536 1538 1540 1541 1543 1544 1545 1547 1548 1549 1550 1551 1552 1553 1554 1555 1555 1556 1557 1557 1558 1558 1559 1559 1560 1560 1561 1560 1560 1559 1559 1561 1561
1509 1513 1517 1521 1524 1527 1529 1531 1533 1535 1537 1539 1541 1542 1544 1545 1547 1548 1549 1550 1551 1552 1553 1554 1555 1555 1556 1557 1557 1558 1558 1559 1560 1560 1560 1561 1562 1562 1562 1561 1561 1562 1562
1510 1514 1518 1522 1525 1527 1530 1532 1534 1536 1538 1540 1542 1543 1544 1546 1547 1548 1550 1551 1552 1553 1554 1555 1555 1556 1556 1557 1557 1558 1558 1559 1560 1560 1561 1561 1562 1562 1563 1563 1562 1562 1562
1512 1515 1518 1522 1525 1528 1530 1532 1535 1537 1539 1540 1542 1543 1545 1546 1547 1548 1550 1551 1552 1553 1554 1555 1555 1556 1556 1557 1557 1557 1558 1559 1559 1560 1561 1561 1562 1562 1563 1563 1563 1563 1562
1513 1516 1519 1522 1526 1528 1530 1533 1535 1537 1539 1541 1542 1544 1545 1546 1547 1548 1550 1551 1552 1553 1553 1554 1555 1556 1556 1556 1557 1557 1557 1558 1558 1559 1560 1561 1562 1561 1562 1562 1562 1562 1562
1515 1516 1520 1522 1525 1528 1530 1532 1534 1536 1538 1540 1542 1543 1545 1546 1547 1548 1549 1550 1552 1552 1553 1554 1554 1555 1555 1556 1556 1556 1556 1556 1557 1557 1558 1560 1560 1560 1560 1560 1560 1560 1560
1515 1516 1520 1523 1525 1528 1530 1532 1534 1536 1538 1540 1542 1543 1545 1546 1547 1548 1549 1550 1551 1552 1553 1553 1554 1554 1554 1554 1555 1555 1555 1555 1555 1556 1556 1558 1558 1558 1558 1558 1558 1558 1558
1515 1515 1519 1522 1525 1527 1529 1532 1534 1536 1538 1539 1541 1543 1544 1545 1546 1547 1548 1549 1550 1551 1552 1552 1553 1553 1553 1553 1553 1553 1553 1553 1553 1553 1553 1555 1555 1555 1555 1555 1555 1555 1555
1515 1515 1519 1521 1524 1526 1529 1531 1533 1535 1537 1538 1540 1541 1543 1544 1545 1546 1547 1548 1549 1550 1550 1551 1551 1551 1551 1551 1551 1551 1550 1550 1550 1550 1550 1551 1552 1552 1552 1552 1552 1552 1552
1516 1516 1518 1520 1523 1525 1528 1530 1532 1534 1536 1537 1539 1540 1541 1542 1543 1544 1546 1547 1548 1548 1549 1549 1549 1549 1549 1549 1549 1549 1548 1547 1547 1547 1548 1549 1549 1549 1549 1549 1549 1548 1548
1516 1517 1519 1520 1521 1524 1527 1528 1530 1532 1534 1535 1537 1538 1539 1541 1542 1544 1544 1545 1545 1546 1546 1546 1547 1547 1547 1546 1546 1547 1546 1546 1545 1545 1546 1546 1546 1546 1546 1546 1545 1545 1545
1515 1517 1519 1520 1521 1524 1527 1528 1529 1530 1531 1533 1535 1537 1538 1539 1541 1542 1543 1542 1543 1544 1544 1544 1544 1544 1544 1544 1545 1545 1545 1544 1544 1544 1543 1543 1543 1543 1543 1542 1541 1541 1541
1513 1515 1517 1518 1520 1523 1526 1528 1528 1530 1531 1531 1532 1534 1536 1537 1539 1540 1542 1541 1541 1541 1541 1542 1542 1542 1542 1542 1543 1544 1543 1543 1543 1542 1541 1540 1540 1540 1539 1538 1538 1537 1537
1511 1513 1515 1516 1517 1519 1522 1525 1527 1529 1530 1530 1531 1532 1534 1535 1536 1538 1539 1539 1540 1540 1541 1540 1541 1541 1540 1541 1541 1541 1541 1540 1540 1539 1538 1537 1536 1536 1535 1534 1534 1533 1533
1509 1511 1513 1513 1514 1516 1518 1520 1523 1526 1527 1529 1529 1529 1530 1531 1533 1534 1535 1535 1535 1536 1537 1537 1538 1538 1537 1537 1537 1537 1537 1536 1536 1535 1535 1534 1532 1532 1531 1530 1529 1529 1528
1507 1509 1510 1511 1512 1513 1515 1517 1519 1521 1523 1525 1526 1527 1527 1527 1529 1530 1530 1531 1531 1531 1532 1532 1532 1533 1533 1533 1533 1533 1533 1532 1531 1531 1530 1530 1528 1527 1526 1526 1525 1525 1524
1506 1507 1508 1510 1510 1510 1512 1513 1516 1518 1520 1521 1522 1523 1523 1523 1524 1525 1525 1526 1526 1526 1526 1527 1527 1527 1527 1527 1528 1528 1528 1527 1526 1525 1525 1524 1523 1522 1521 1520 1520 1520 1520
1504 1505 1506 1508 1509 1509 1510 1510 1512 1513 1515 1516 1518 1518 1518 1518 1518 1519 1519 1520 1520 1521 1521 1521 1522 1521 1521 1521 1522 1522 1522 1521 1520 1520 1519 1518 1518 1517 1516 1515 1515 1515 1515
1501 1503 1505 1506 1507 1508 1507 1508 1508 1509 1510 1511 1512 1513 1514 1514 1513 1513 1514 1514 1515 1515 1515 1515 1515 1515 1515 1516 1516 1517 1516 1515 1514 1514 1513 1513 1512 1512 1511 1510 1508 1508 1508
1501 1501 1502 1503 1503 1504 1504 1504 1504 1505 1506 1507 1507 1508 1508 1508 1508 1508 1509 1509 1509 1510 1509 1510 1510 1509 1509 1511 1511 1511 1510 1509 1508 1506 1506 1506 1506 1506 1506 1505 1503 1501 1501
1499 1499 1500 1500 1500 1500 1500 1500 1500 1501 1502 1502 1502 1502 1502 1502 1503 1504 1504 1504 1504 1504 1503 1504 1504 1503 1503 1505 1505 1506 1506 1504 1502 1502 1501 1501 1501 1501 1501 1500 1499 1498 1497
1500 1499 1498 1497 1497 1496 1496 1496 1495 1496 1495 1496 1496 1496 1495 1496 1496 1497 1497 1497 1497 1497 1497 1497 1497 1498 1497 1498 1500 1501 1502 1500 1498 1497 1498 1498 1497 1497 1496 1495 1495 1494 1494
1500 1499 1497 1496 1495 1494 1493 1492 1491 1490 1489 1489 1490 1490 1489 1489 1490 1489 1490 1490 1490 1490 1490 1490 1491 1491 1492 1492 1493 1495 1497 1498 1497 1495 1495 1494 1493 1492 1491 1490 1490 1489 1489
1500 1498 1496 1494 1493 1491 1490 1489 1488 1486 1485 1484 1483 1483 1482 1483 1483 1483 1484 1484 1483 1483 1483 1484 1484 1485 1486 1487 1488 1490 1491 1492 1492 1492 1490 1490 1489 1487 1486 1485 1484 1484 1484
1498 1497 1495 1493 1491 1489 1487 1486 1485 1483 1481 1479 1478 1477 1476 1476 1476 1476 1476 1476 1477 1477 1477 1478 1479 1480 1481 1482 1484 1485 1488 1488 1487 1488 1487 1485 1484 1483 1482 1481 1480 1480 1480